TimeMDT,TemperatureF,Dew PointF,Humidity,Sea Level PressureIn,VisibilityMPH,Wind Direction,Wind SpeedMPH,Gust SpeedMPH,PrecipitationIn,Events,Conditions,WindDirDegrees,DateUTC
12:51 AM,54.0,46.0,75,29.97,10.0,ENE,19.6,-,N/A,,Scattered Clouds,60,2012-10-01 06:51:00
1:51 AM,55.9,44.1,64,29.97,10.0,NE,12.7,-,N/A,,Clear,40,2012-10-01 07:51:00
2:51 AM,59.0,43.0,55,29.94,10.0,WSW,6.9,-,N/A,,Clear,250,2012-10-01 08:51:00
3:51 AM,60.1,42.1,51,29.93,10.0,SW,3.5,-,N/A,,Mostly Cloudy,220,2012-10-01 09:51:00
4:51 AM,63.0,36.0,37,29.96,10.0,Variable,3.5,-,N/A,,Partly Cloudy,0,2012-10-01 10:51:00
5:51 AM,62.1,37.0,39,29.97,10.0,NNE,10.4,-,N/A,,Clear,30,2012-10-01 11:51:00
6:51 AM,59.0,39.0,48,30.01,10.0,ENE,12.7,-,N/A,,Clear,60,2012-10-01 12:51:00
7:51 AM,64.0,39.0,40,30.02,9.0,NE,5.8,-,N/A,,Clear,40,2012-10-01 13:51:00
8:51 AM,63.0,39.9,43,30.04,9.0,South,3.5,-,N/A,,Clear,180,2012-10-01 14:51:00
9:51 AM,72.0,36.0,27,30.02,9.0,NNE,16.1,-,N/A,,Clear,30,2012-10-01 15:51:00
10:51 AM,73.0,37.0,27,30.05,9.0,NNE,23.0,33.4,N/A,,Clear,30,2012-10-01 16:51:00
11:51 AM,73.9,37.9,27,30.04,9.0,NE,23.0,29.9,N/A,,Clear,40,2012-10-01 17:51:00
12:51 PM,73.0,37.0,27,30.04,9.0,NE,27.6,36.8,N/A,,Clear,40,2012-10-01 18:51:00
1:08 PM,73.9,37.0,26,30.22,2.0,NE,27.6,39.1,N/A,,Haze,50,2012-10-01 19:08:00
1:17 PM,73.0,37.0,27,30.22,9.0,NE,25.3,34.5,N/A,,Clear,40,2012-10-01 19:17:00
1:40 PM,73.9,37.0,26,30.21,2.0,NE,29.9,34.5,N/A,,Haze,40,2012-10-01 19:40:00
1:49 PM,73.4,37.4,27,30.21,9.0,NE,29.9,35.7,N/A,,Clear,40,2012-10-01 19:49:00
1:51 PM,72.0,37.0,28,30.03,9.0,NE,29.9,35.7,N/A,,Clear,40,2012-10-01 19:51:00
2:01 PM,73.0,37.9,28,30.22,1.2,NE,23.0,29.9,N/A,,Haze,50,2012-10-01 20:01:00
2:17 PM,73.0,37.9,28,30.21,9.0,NE,25.3,38.0,N/A,,Clear,50,2012-10-01 20:17:00
2:51 PM,73.0,37.9,28,30.02,9.0,NE,24.2,35.7,N/A,,Clear,40,2012-10-01 20:51:00
3:51 PM,72.0,39.9,31,30.00,9.0,NE,29.9,34.5,N/A,,Clear,40,2012-10-01 21:51:00
4:51 PM,71.1,37.9,30,30.01,9.0,NE,25.3,-,N/A,,Clear,40,2012-10-01 22:51:00
5:51 PM,69.1,37.0,31,29.99,9.0,NE,27.6,-,N/A,,Clear,40,2012-10-01 23:51:00
6:51 PM,66.9,39.0,36,30.02,9.0,NE,23.0,-,N/A,,Clear,40,2012-10-02 00:51:00
7:51 PM,64.0,41.0,43,30.04,10.0,NE,12.7,-,N/A,,Clear,40,2012-10-02 01:51:00
8:51 PM,63.0,42.1,46,30.05,10.0,NE,16.1,-,N/A,,Clear,50,2012-10-02 02:51:00
9:51 PM,63.0,42.1,46,30.04,10.0,NE,21.9,-,N/A,,Clear,40,2012-10-02 03:51:00
10:51 PM,60.1,44.1,55,30.06,9.0,NE,21.9,-,N/A,,Clear,50,2012-10-02 04:51:00
11:51 PM,57.9,45.0,62,30.06,10.0,NE,17.3,-,N/A,,Clear,50,2012-10-02 05:51:00